GLOBALSTAR M001 1 25162U 98008A 25342.86842292 -.00000078 00000+0 14586-3 0 9990 2 25162 52.0005 184.7951 0000244 269.9863 103.1818 12.38223275265356 GLOBALSTAR M004 1 25163U 98008B 25342.66491059 -.00000004 00000+0 54742-3 0 9997 2 25163 52.0001 241.8577 0003045 334.3463 35.7350 12.63410658283742 GLOBALSTAR M002 1 25164U 98008C 25342.77541372 -.00000069 00000+0 14820-3 0 9998 2 25164 51.9979 162.4517 0002686 98.8299 261.2825 11.61514636204357 GLOBALSTAR M003 1 25165U 98008D 25342.44176029 -.00000184 00000+0 -10140-2 0 9995 2 25165 51.9929 45.8890 0007605 283.2839 89.3486 12.12043678254354 GLOBALSTAR M014 1 25306U 98023A 25342.67389954 -.00000092 00000+0 -27790-3 0 9995 2 25306 51.9847 82.2589 0000235 6.5146 142.0259 11.65483814211512 GLOBALSTAR M006 1 25307U 98023B 25342.73440604 -.00000085 00000+0 -19649-3 0 9999 2 25307 51.9909 141.1040 0004199 75.1513 27.7777 11.58178746237050 GLOBALSTAR M015 1 25308U 98023C 25342.52222604 -.00000025 00000+0 11016-2 0 9997 2 25308 51.9822 248.0972 0013333 28.3258 143.1901 11.48862752214112 GLOBALSTAR M008 1 25309U 98023D 25342.67926921 -.00000070 00000+0 20469-3 0 9990 2 25309 51.9988 52.1520 0003038 174.4351 351.7840 12.36076616259423 GLOBALSTAR M023 1 25621U 99004A 25342.76043777 -.00000076 00000+0 15737-3 0 9994 2 25621 52.0103 241.8586 0010104 148.6386 247.4332 12.62509861237787 GLOBALSTAR M040 1 25622U 99004B 25342.51623663 -.00000035 00000+0 38194-3 0 9993 2 25622 51.9917 247.0135 0001758 57.7273 113.2992 12.62024941237263 GLOBALSTAR M036 1 25623U 99004C 25342.85196823 -.00000083 00000+0 -33364-6 0 9995 2 25623 51.9942 139.9340 0010878 30.2304 118.4911 11.86618281199719 GLOBALSTAR M038 1 25624U 99004D 25342.63826730 -.00000050 00000+0 37273-3 0 9992 2 25624 51.9987 289.1683 0002406 54.1212 117.1993 12.32537076223884 GLOBALSTAR M022 1 25649U 99012A 25342.53920456 -.00000072 00000+0 18309-3 0 9990 2 25649 52.0008 176.9302 0003276 136.6989 249.9269 12.02507968197357 GLOBALSTAR M041 1 25650U 99012B 25342.53818461 -.00000068 00000+0 22523-3 0 9992 2 25650 52.0038 63.6978 0000578 307.1236 52.9548 11.96681296199156 GLOBALSTAR M046 1 25651U 99012C 25342.63570793 -.00000158 00000+0 -76693-3 0 9995 2 25651 52.0041 120.4325 0001515 212.7513 161.7388 12.09417767204771 GLOBALSTAR M037 1 25652U 99012D 25342.85546347 -.00000042 00000+0 34502-3 0 9992 2 25652 52.0025 12.1218 0001974 205.5493 324.8553 12.62457711233330 GLOBALSTAR M045 1 25676U 99019A 25342.81692352 -.00000080 00000+0 12392-3 0 9994 2 25676 51.9937 167.5339 0001086 102.1993 271.9771 12.27070321214833 GLOBALSTAR M019 1 25677U 99019B 25342.24502376 -.00000094 00000+0 -44255-4 0 9998 2 25677 51.9891 311.7794 0001455 328.8019 44.7084 12.13875953206289 GLOBALSTAR M044 1 25678U 99019C 25342.84808144 -.00000023 00000+0 84338-3 0 9993 2 25678 51.9982 283.3132 0006658 18.1926 16.1659 11.90260934192126 GLOBALSTAR M042 1 25679U 99019D 25342.54440310 -.00000042 00000+0 46908-3 0 9990 2 25679 52.0025 278.7357 0002883 312.2868 219.1250 12.22093421206571 GLOBALSTAR M025 1 25770U 99031A 25342.86088360 -.00000072 00000+0 -13095-3 0 9999 2 25770 51.9800 114.6238 0003110 86.7619 84.4943 11.22558710501328 GLOBALSTAR M049 1 25771U 99031B 25342.80880826 -.00000111 00000+0 -15828-2 0 9990 2 25771 51.9837 158.2851 0002129 331.6296 28.4384 11.12124306136854 GLOBALSTAR M047 1 25772U 99031C 25342.82156214 -.00000078 00000+0 -23204-3 0 9990 2 25772 51.9800 138.5396 0016210 198.4303 161.5917 11.31931807490884 GLOBALSTAR M052 1 25773U 99031D 25342.84799079 -.00000034 00000+0 10814-2 0 9998 2 25773 51.9870 264.4152 0003173 87.9007 306.2682 11.15062512497994 GLOBALSTAR M035 1 25851U 99037A 25342.54088264 -.00000045 00000+0 70900-3 0 9990 2 25851 51.9984 26.1376 0013501 263.0263 269.5570 11.04540691115525 GLOBALSTAR M032 1 25852U 99037B 25342.86992074 -.00000006 00000+0 19648-2 0 9997 2 25852 51.9929 198.5541 0013680 98.7550 261.4799 11.19075185154347 GLOBALSTAR M051 1 25853U 99037C 25342.72985192 -.00000110 00000+0 -93974-3 0 9998 2 25853 51.9821 339.8276 0000125 128.9603 231.1219 11.42204258152338 GLOBALSTAR M030 1 25854U 99037D 25342.71019150 -.00000074 00000+0 27174-4 0 9998 2 25854 51.9856 134.8809 0003312 22.2322 337.8638 11.55109944170213 GLOBALSTAR M048 1 25872U 99041A 25342.60553873 -.00000035 00000+0 95181-3 0 9995 2 25872 51.9380 281.9056 0013313 123.6038 46.8513 11.33860719144765 GLOBALSTAR M026 1 25873U 99041B 25342.70587252 -.00000020 00000+0 16112-2 0 9995 2 25873 51.9976 141.8860 0001911 160.4824 212.4316 11.06848767167819 GLOBALSTAR M043 1 25874U 99041C 25342.86833992 -.00000050 00000+0 52481-3 0 9991 2 25874 51.9430 35.8835 0013454 246.5353 284.8663 11.25696385142546 GLOBALSTAR M028 1 25875U 99041D 25342.54708733 -.00000044 00000+0 36551-3 0 9994 2 25875 51.9644 33.1492 0063636 90.4242 270.3911 12.50592480211996 GLOBALSTAR M024 1 25883U 99043A 25342.72067574 -.00000118 00000+0 -18699-2 0 9991 2 25883 52.0045 346.8126 0001513 20.6956 150.9036 11.10167157134240 GLOBALSTAR M027 1 25884U 99043B 25342.64183742 -.00000115 00000+0 -19463-2 0 9996 2 25884 52.0228 69.9134 0020944 271.8638 87.9757 11.04372258160513 GLOBALSTAR M054 1 25885U 99043C 25342.80936603 -.00000065 00000+0 15368-3 0 9991 2 25885 52.0101 167.5359 0005999 111.5845 262.1112 11.39224743138959 GLOBALSTAR M053 1 25886U 99043D 25342.80698000 -.00000069 00000+0 -78328-5 0 9990 2 25886 51.9964 124.3233 0003629 39.4789 110.3106 11.27669031139149 GLOBALSTAR M058 1 25907U 99049A 25342.80237315 -.00000055 00000+0 39072-3 0 9993 2 25907 51.9967 2.9029 0001768 244.8795 115.1857 11.93206822562381 GLOBALSTAR M050 1 25908U 99049B 25342.82415235 -.00000075 00000+0 15066-3 0 9994 2 25908 52.0014 357.4736 0009109 20.6794 150.0695 12.07462006169280 GLOBALSTAR M033 1 25909U 99049C 25342.81680450 -.00000078 00000+0 12806-3 0 9999 2 25909 51.9897 217.2654 0013152 265.1541 94.7804 12.20294155557065 GLOBALSTAR M055 1 25910U 99049D 25342.80838477 -.00000052 00000+0 36025-3 0 9995 2 25910 52.0004 219.5330 0007551 126.6914 233.4632 12.29437638189769 GLOBALSTAR M057 1 25943U 99058A 25342.83266838 -.00000028 00000+0 58603-3 0 9999 2 25943 51.9965 212.5585 0003148 28.4133 331.6887 12.24831404188333 GLOBALSTAR M059 1 25944U 99058B 25342.58627257 -.00000077 00000+0 11957-3 0 9993 2 25944 52.0019 95.3609 0000649 114.2047 258.8397 11.99988182594986 GLOBALSTAR M056 1 25945U 99058C 25342.75618318 -.00000134 00000+0 -54729-3 0 9990 2 25945 51.9968 92.3865 0001584 147.7523 18.7867 12.04781448183665 GLOBALSTAR M031 1 25946U 99058D 25342.69201780 -.00000144 00000+0 -54654-3 0 9993 2 25946 51.9979 334.4394 0001196 167.8050 3.8665 12.16044225185775 GLOBALSTAR M039 1 25961U 99062A 25342.67737965 -.00000077 00000+0 14991-3 0 9996 2 25961 51.9845 97.2455 0002581 34.4967 325.6066 12.62338729202250 GLOBALSTAR M034 1 25962U 99062B 25342.86149384 -.00000053 00000+0 44557-3 0 9995 2 25962 51.9884 277.3335 0014870 13.2367 20.2602 11.79453175159003 GLOBALSTAR M029 1 25963U 99062C 25342.72726979 -.00000039 00000+0 58052-3 0 9991 2 25963 51.9827 342.8678 0002568 98.0443 72.7619 11.99904015190074 GLOBALSTAR M061 1 25964U 99062D 25342.78505123 -.00000097 00000+0 -27589-3 0 9990 2 25964 51.9792 103.8824 0004951 292.4728 236.1337 11.76778150141734 GLOBALSTAR M063 1 26081U 00008A 25342.41086468 -.00000001 00000+0 12025-2 0 9991 2 26081 51.9988 12.7261 0004439 286.8240 86.3095 11.86179206178253 GLOBALSTAR M062 1 26082U 00008B 25342.86221874 -.00000038 00000+0 43275-3 0 9995 2 26082 51.9863 302.1102 0007229 120.9889 256.4075 12.43479558518357 GLOBALSTAR M060 1 26083U 00008C 25342.60370535 .00000016 00000+0 10664-2 0 9997 2 26083 52.0030 287.5557 0003494 107.6486 63.2004 12.17669759173618 GLOBALSTAR M064 1 26084U 00008D 25342.81786714 -.00000058 00000+0 36535-3 0 9994 2 26084 52.0024 108.4222 0001936 65.9056 294.1979 11.88539515187861 GLOBALSTAR M065 1 31571U 07020A 25342.45527953 -.00000057 00000+0 25995-3 0 9997 2 31571 51.9911 55.8445 0009404 336.6001 36.6386 12.62015722855415 GLOBALSTAR M069 1 31573U 07020C 25342.50020352 -.00000095 00000+0 -25061-4 0 9994 2 31573 52.0044 71.8415 0002536 118.8619 255.0928 12.23464063855462 GLOBALSTAR M072 1 31574U 07020D 25342.71896419 -.00000045 00000+0 53890-3 0 9997 2 31574 51.9930 247.3246 0001120 348.9747 25.7077 11.91654077852276 GLOBALSTAR M071 1 31576U 07020F 25342.74305419 -.00000019 00000+0 71421-3 0 9998 2 31576 52.0058 101.6932 0001775 109.5174 39.0360 12.18262887516214 GLOBALSTAR M067 1 32263U 07048A 25342.45380618 -.00000068 00000+0 21700-3 0 9993 2 32263 51.9726 246.0090 0001706 24.0919 147.3212 12.40682554831119 GLOBALSTAR M070 1 32264U 07048B 25342.67302117 -.00000069 00000+0 19192-3 0 9999 2 32264 51.9767 316.9440 0000285 78.1862 92.7141 12.62327074835709 GLOBALSTAR M066 1 32265U 07048C 25342.82175391 -.00000079 00000+0 13142-3 0 9999 2 32265 51.9585 244.3973 0005460 13.2405 59.8107 12.30382836836794 GLOBALSTAR M068 1 32266U 07048D 25342.85494367 -.00000059 00000+0 24811-3 0 9993 2 32266 51.9867 129.8041 0001867 132.6579 31.7885 12.62834975839624 GLOBALSTAR M079 1 37188U 10054A 25342.72249624 -.00000084 00000+0 11118-3 0 9996 2 37188 52.0056 328.4733 0000373 10.3064 160.1873 12.62269039698496 GLOBALSTAR M074 1 37189U 10054B 25342.74914536 -.00000089 00000+0 82138-4 0 9996 2 37189 52.0033 327.6873 0000499 54.2222 117.2017 12.62263968699107 GLOBALSTAR M076 1 37190U 10054C 25342.69653440 -.00000089 00000+0 83852-4 0 9990 2 37190 52.0047 328.0358 0000543 34.4079 136.6170 12.62267875698810 GLOBALSTAR M077 1 37191U 10054D 25342.86160779 -.00000067 00000+0 20929-3 0 9999 2 37191 52.0110 302.7616 0000709 10.5325 9.5443 11.68138647698901 GLOBALSTAR M075 1 37192U 10054E 25342.78865395 -.00000087 00000+0 96146-4 0 9994 2 37192 51.9967 9.9129 0000327 105.1190 66.2908 12.62270283697893 GLOBALSTAR M073 1 37193U 10054F 25342.63074933 -.00000073 00000+0 17382-3 0 9998 2 37193 52.0069 284.3496 0000683 35.2475 136.1493 12.62264983699864 GLOBALSTAR M083 1 37739U 11033A 25342.86040588 -.00000072 00000+0 17796-3 0 9994 2 37739 51.9849 232.1397 0000817 58.0619 19.4103 12.62265445668914 GLOBALSTAR M088 1 37740U 11033B 25342.76088654 -.00000109 00000+0 -27343-4 0 9993 2 37740 52.0192 138.4071 0001082 105.3970 358.8170 12.62271005664444 GLOBALSTAR M091 1 37741U 11033C 25342.59587279 -.00000100 00000+0 22630-4 0 9996 2 37741 51.9993 102.1569 0000792 124.5377 248.8017 12.62262363665214 GLOBALSTAR M085 1 37742U 11033D 25342.50335940 -.00000078 00000+0 14411-3 0 9995 2 37742 52.0147 53.5638 0000449 149.5251 223.9104 12.62267171665719 GLOBALSTAR M081 1 37743U 11033E 25342.72446994 -.00000078 00000+0 14286-3 0 9992 2 37743 51.9972 55.5423 0000400 120.0507 59.1702 12.62270742665882 GLOBALSTAR M089 1 37744U 11033F 25342.84144108 -.00000075 00000+0 16134-3 0 9999 2 37744 51.9955 9.3822 0000555 79.7656 91.9394 12.62262074666746 GLOBALSTAR M084 1 38040U 11080A 25342.74578553 -.00000080 00000+0 13470-3 0 9991 2 38040 52.0004 237.0556 0001162 63.9510 331.7289 12.62266361644710 GLOBALSTAR M080 1 38041U 11080B 25342.71337191 -.00000060 00000+0 24178-3 0 9995 2 38041 52.0052 238.8062 0000641 97.8775 280.4497 12.62264627644832 GLOBALSTAR M082 1 38042U 11080C 25342.74149876 -.00000083 00000+0 11713-3 0 9996 2 38042 52.0052 194.2016 0000848 98.0361 337.7725 12.62266112645540 GLOBALSTAR M092 1 38043U 11080D 25342.86456183 -.00000067 00000+0 20320-3 0 9998 2 38043 52.0094 284.2129 0000638 58.1236 336.7309 12.62268155644014 GLOBALSTAR M090 1 38044U 11080E 25342.83370869 -.00000091 00000+0 70149-4 0 9994 2 38044 52.0099 187.8158 0000895 80.3989 293.5664 12.62265326645671 GLOBALSTAR M086 1 38045U 11080F 25342.85789730 -.00000086 00000+0 10157-3 0 9994 2 38045 51.9873 187.9818 0001315 30.8221 342.5166 12.62280939645625 GLOBALSTAR M097 1 39072U 13005A 25342.72466942 -.00000109 00000+0 -31067-4 0 9998 2 39072 52.0041 103.1186 0000671 107.2093 252.8847 12.62267805592855 GLOBALSTAR M093 1 39073U 13005B 25342.69859286 -.00000094 00000+0 55639-4 0 9995 2 39073 52.0104 96.4735 0000431 117.2882 242.8029 12.62270997592803 GLOBALSTAR M094 1 39074U 13005C 25342.77760831 -.00000085 00000+0 10218-3 0 9995 2 39074 51.9978 10.5404 0000050 87.0212 273.0660 12.62265234594424 GLOBALSTAR M096 1 39075U 13005D 25342.63230992 -.00000079 00000+0 13880-3 0 9992 2 39075 52.0088 59.6316 0000418 140.2711 219.8187 12.62269237593326 GLOBALSTAR M078 1 39076U 13005E 25342.76471127 -.00000115 00000+0 -64090-4 0 9996 2 39076 51.9845 143.5043 0001062 152.5841 207.5082 12.62272393591965 GLOBALSTAR M095 1 39077U 13005F 25342.79092138 -.00000113 00000+0 -52593-4 0 9994 2 39077 52.0055 140.7576 0000704 122.5113 237.5822 12.62267249591826 GLOBALSTAR M087 1 52888U 22064A 25342.56637678 -.00000068 00000+0 19780-3 0 9991 2 52888 52.0007 282.7883 0000455 39.9717 320.1184 12.62261065167065